Regional Weather Roundup
Issued by NWS

Home | Current Version | Previous Version | Text Only | Print | Product List | Glossary Off
Versions: 1 2 3 4 5 6 7 8 9 10 11 12 13 14 15 16 17 18 19 20 21 22 23 24 25 26 27 28 29 30 31 32 33 34 35 36 37 38 39 40 41 42 43 44 45 46 47 48 49 50

000
ASUS43 KIND 300159
RWRIN

WEATHER ROUNDUP FOR INDIANA
NATIONAL WEATHER SERVICE INDIANAPOLIS IN
1000 PM EDT SUN MAY 29 2016

NOTE: "FAIR" INDICATES FEW OR NO CLOUDS BELOW 12,000 FEET WITH NO
SIGNIFICANT WEATHER AND/OR OBSTRUCTIONS TO VISIBILITY.

* - STATION DOES NOT REPORT WEATHER SUCH AS PRECIPITATION OR FOG.

+ - STATION NOT QUALITY CONTROLLED BY THE NATIONAL WEATHER SERVICE.
    USE DATA WITH CAUTION...ESPECIALLY DEWPOINT AND RELATIVE
    HUMIDITY OBSERVATIONS.

INZ001>003-010>013-019-020-300300-
NORTHWEST INDIANA

CITY           SKY/WX    TMP DP  RH WIND       PRES   REMARKS
GARY /AIRPORT/ CLEAR     73  63  68 W9        29.99S
KNOX *+        CLEAR     73  45  35 W6        29.99S
MONTICELLO +   CLEAR     74  48  40 CALM      29.99S
RENSSELAER +   CLEAR     73  54  49 NW3       29.99S

$$

LMZ046-743>745-300300-
SOUTHERN LAKE MICHIGAN

STATION/POSITION TIME  TEMP    WIND        PRES    WAVE
                       AIR SEA DIR/SP/G            HT
                 (UTC) (F)     (DEG/KT/KT) (MB)    (FT)
BURNS HARBOR     0100   68     270/ 10/ 12 1015.6F
MICHIGAN CITY    0100   69     220/  9/ 11   N/A
5NW MICH CITY    0100   64 59  260/  4/  6   N/A     1

$$

INZ004-005-014>016-021>024-300300-
NORTH CENTRAL INDIANA

CITY           SKY/WX    TMP DP  RH WIND       PRES   REMARKS
GOSHEN         CLEAR     69  56  62 NW3       29.99S
SOUTH BEND     CLEAR     67  56  67 W5        29.99F

$$

INZ006>009-017-018-025>027-300300-
NORTHEAST INDIANA

CITY           SKY/WX    TMP DP  RH WIND       PRES   REMARKS
ANGOLA *+        N/A     73  54  49 NW6       29.99S
FORT WAYNE     PTCLDY    74  53  48 W7        29.98S

$$

INZ028-029-035-036-043>045-051>053-300300-
WEST CENTRAL INDIANA

CITY           SKY/WX    TMP DP  RH WIND       PRES   REMARKS
CRAWFORDSVL +  CLOUDY    72  54  53 CALM      30.01S
GREENCASTLE +  CLOUDY    73  61  64 CALM      30.02R
LAFAYETTE      CLEAR     73  55  53 W7        29.99S
TERRE HAUTE    MOCLDY    76  60  57 W5        30.01S

$$

INZ030>032-037>040-046>048-054>057-064-065-300300-
CENTRAL INDIANA

CITY           SKY/WX    TMP DP  RH WIND       PRES   REMARKS
COLUMBUS       PTCLDY    72  64  78 SW6       30.01R
FRANKFORT +      N/A     71  43  36 NW5       30.03R
INDIANAPOLIS   MOCLDY    71  64  78 SW7       29.99S
-EAGLE CREEK   CLOUDY    77  54  44 NW6       29.99S
KOKOMO *+      CLEAR     72  54  53 W7        29.99S
SHELBYVILLE    CLEAR     72  61  68 SW6       30.00R

$$

INZ033-034-041-042-049-050-058-059-300300-
EAST CENTRAL INDIANA

CITY           SKY/WX    TMP DP  RH WIND       PRES   REMARKS
MUNCIE         PTCLDY    77  53  43 W5        29.99R

$$

INZ060-061-067>069-081>083-085>088-300300-
SOUTHWEST INDIANA

CITY           SKY/WX    TMP DP  RH WIND       PRES   REMARKS
EVANSVILLE     CLEAR     73  67  81 CALM      30.03R
HUNTINGBURG *+ CLEAR     72  63  73 CALM      30.03S

$$

INZ062-063-066-070>080-084-089>092-300300-
SOUTH CENTRAL AND SOUTHEAST INDIANA

CITY           SKY/WX    TMP DP  RH WIND       PRES   REMARKS
BLOOMINGTON    CLEAR     69  66  90 CALM      30.02S
MADISON *+     CLEAR     72  64  78 CALM      30.04R
SEYMOUR +      CLEAR     73  64  73 CALM      30.01R

$$





USA.gov is the U.S. government's official web portal to all federal, state and local government web resources and services.